Location: Asheville, NC
(35.6000°N, 82.5500°W)
Time: 07:15:35
(UTC-04:00)

Vanguard 1 Rocket - Pass Details

Date: 07 December 2017
Orbit: 652 x 4225 km, 34.3° (Epoch: 18 July)

Event Time Altitude Azimuth Distance (km) Brightness Sun altitude
Rises 19:31:26 0° 251° (WSW) 5,183 12.5 -26.7°
Reaches altitude 10° 19:34:08 10° 250° (WSW) 4,531 11.9 -27.2°
Maximum altitude 19:48:10 81° 166° (SSE) 3,194 9.9 -30.0°
Enters shadow 19:58:14 44° 87° (E) 4,603 10.3 -32.0°
